Showing default

IRIDIUM 29, 24944

Orbit data source: Space-Track

IRIDIUM 29, 24944 is a payload satellite owned by Iridium (US) in LEO that was launched on Sun, 14 Sep 1997 UTC via a PROTON-K/17S40 launch vehicle from the Tyuratam Missile And Space Complex (TTMTR). Payloads include a variety of satellites, spacecraft, and rockets equipped with specific instruments for various scientific and technological missions. These include communications satellites like Starlink; space stations such as the ISS; scientific satellites like the Hubble; Earth observation satellites from companies like Planet Labs, Umbra, and HawkEye 360; GPS; miniature CubeSats for education and research; and military/defense satellites.

Loading next visibility...
IRIDIUM 29 details
Identifier
24944, 1997-051A
Orbit
LEO
Last TLE update19 hours ago
Origin
Flag of USIridium (US)
ManufacturerMOTO/LMMS
MissionNon-operational Commercial Communications
Bus & MotorLM700, Unknown motor
Mass662 kg wet, 556 kg dry
Launch date (UTC)
1997-09-14 (27 years ago)
Launch vehicle
PROTON-K/17S40
Launch site
Tyuratam Missile And Space Complex (TTMTR)
Object type
Payload
Rocket body
Debris
Shape & HBRBox + 2 Pan, 8.37 m
Radar Cross Section5.666 m², Large (>1 m²)

Expand to show TLE details & history

TLE from 19 hours ago
0 IRIDIUM 29
1 24944U 97051A   24360.67241314  .00000929  00000-0  31204-3 0  9991
2 24944  86.3966 216.6002 0002184  88.8745 271.2702 14.36177687428583
Epoch: 2024-12-25T16:08Z
Definitive object data (Epoch: 2024-12-25T16:08:16.495Z)
Latitude-0.00002°
Longitude-120.13133°
Altitude774.175 km
Speed7.467 km/s
True Right ascension14h 26m 24s
True Declination0° 00' 00"
Sunlit
Object was in daylight at TLE epoch
Visualization TLE readout
Latitude23.52754°
Longitude-118.89183°
Altitude773.42 km
Speed7.47 km/s
Apparent Right ascension17h 26m 54s
Apparent Declination-10° 39' 10"
Sunlit
Object is in daylight
Visualization observer readout
Local Sidereal Time09:59:38
Azimuth84.207° E
Elevation-23.499°
Doppler factor1
Orbital elements
Apogee altitude769.678 km
Perigee altitude766.556 km
Semi-major axis7,146.254 km
Eccentricity0.0002184
Inclination86.3966°
RAAN216.6002°
Arg. of periapsis88.8745°
True anomaly271.24518°
Mean anomaly271.2702°
Eccentric anomaly271.25769°
Mean motion3.59274 °/min
BSTAR0.00031204
Orbital period100.2 mins
Loading maneuver chart data...

IRIDIUM 29 Visibility forecast

Observer location: undefined°, undefined

Span
Click to sort rows by Start time (UTC) header in descending order
Start Az.
Max El. time (UTC)
Max El. Az.
Max El.
End time (UTC)
End Az.
5 mins2024-12-26 14:01:25.903Z113.887° SE2024-12-26 14:04:25.903Z72.816° E17.534°2024-12-26 14:06:25.903Z46.694° ENE
8 mins2024-12-26 15:40:25.903Z208.507° SW2024-12-26 15:44:25.903Z287.848° WNW35.717°2024-12-26 15:48:25.903Z347.627° N
8 mins2024-12-27 02:10:25.903Z21.328° NNE2024-12-27 02:13:25.903Z74.708° E33.389°2024-12-27 02:18:25.903Z152.839° SSE
6 mins2024-12-27 03:51:25.903Z314.606° NW2024-12-27 03:54:25.903Z271.02° WNW19.323°2024-12-27 03:57:25.903Z234.009° WSW
|